GLD1204 SBGR-SBVT

Flight info

Callsign GLD1204
Flight time 1h 6m
Altitude 37000
Route UREMI UZ42 IMDAB DCT SEGLI DCT TODET
Aircraft A333/H-SADE1E2E3GHIJ3J5M1P2RWXY/LB2D1

Departure

Time 2026-04-20 22:28
Airport São Paulo/Guarulhos–Governor André Franco Montoro International Airport (SBGR)

Arrival

Time 2026-04-20 23:34
Airport Eurico de Aguiar Salles International Airport (SBVT)
Time Latitude Longitude Altitude Speed Heading
2026-04-20 22:04 -23.42761 -46.48815 2450 ft 0 kts 276°
2026-04-20 22:17 -23.42761 -46.48811 2423 ft 1 kts 276°
2026-04-20 22:17 -23.42762 -46.48803 2450 ft 1 kts 276°
2026-04-20 22:17 -23.42762 -46.48795 2455 ft 1 kts 276°
2026-04-20 22:18 -23.42763 -46.48785 2450 ft 2 kts 276°
2026-04-20 22:18 -23.42765 -46.48770 2450 ft 2 kts 276°
2026-04-20 22:18 -23.42767 -46.48754 2461 ft 2 kts 255°
2026-04-20 22:18 -23.42763 -46.48739 2454 ft 2 kts 218°
2026-04-20 22:19 -23.42752 -46.48729 2455 ft 2 kts 180°
2026-04-20 22:19 -23.42748 -46.48728 2455 ft 0 kts 172°
2026-04-20 22:22 -23.42770 -46.48728 2454 ft 7 kts 180°
2026-04-20 22:23 -23.42836 -46.48738 2452 ft 11 kts 190°
2026-04-20 22:23 -23.42919 -46.48754 2457 ft 12 kts 185°
2026-04-20 22:23 -23.42968 -46.48705 2461 ft 9 kts 109°
2026-04-20 22:23 -23.42975 -46.48644 2455 ft 8 kts 96°
2026-04-20 22:24 -23.42979 -46.48593 2457 ft 6 kts 95°
2026-04-20 22:24 -23.42983 -46.48546 2464 ft 6 kts 95°
2026-04-20 22:24 -23.42988 -46.48498 2461 ft 6 kts 100°
2026-04-20 22:24 -23.43028 -46.48454 2465 ft 12 kts 147°
2026-04-20 22:25 -23.43106 -46.48422 2468 ft 12 kts 165°
2026-04-20 22:25 -23.43186 -46.48400 2465 ft 12 kts 166°
2026-04-20 22:25 -23.43262 -46.48379 2465 ft 11 kts 166°
2026-04-20 22:25 -23.43281 -46.48374 2469 ft 0 kts 165°
2026-04-20 22:26 -23.43290 -46.48372 2467 ft 4 kts 165°
2026-04-20 22:26 -23.43337 -46.48358 2467 ft 10 kts 165°
2026-04-20 22:26 -23.43409 -46.48317 2465 ft 12 kts 122°
2026-04-20 22:27 -23.43407 -46.48274 2462 ft 0 kts 82°
2026-04-20 22:27 -23.43337 -46.47993 2463 ft 81 kts 74°
2026-04-20 22:27 -23.43101 -46.47129 2462 ft 153 kts 73°
2026-04-20 22:27 -23.42720 -46.45870 2741 ft 185 kts 68°
2026-04-20 22:28 -23.42273 -46.44546 3569 ft 185 kts 69°
2026-04-20 22:28 -23.41825 -46.43185 4084 ft 201 kts 70°
2026-04-20 22:28 -23.41381 -46.41667 4490 ft 220 kts 70°
2026-04-20 22:28 -23.40811 -46.40039 4902 ft 241 kts 68°
2026-04-20 22:29 -23.40206 -46.38256 5211 ft 261 kts 70°
2026-04-20 22:29 -23.39870 -46.36260 5495 ft 274 kts 90°
2026-04-20 22:29 -23.40226 -46.34225 6108 ft 274 kts 112°
2026-04-20 22:29 -23.40979 -46.32307 6729 ft 277 kts 114°
2026-04-20 22:30 -23.41713 -46.30353 7333 ft 281 kts 112°
2026-04-20 22:30 -23.42417 -46.28356 7964 ft 284 kts 111°
2026-04-20 22:30 -23.43104 -46.26326 8577 ft 287 kts 111°
2026-04-20 22:30 -23.43758 -46.24264 9202 ft 290 kts 107°
2026-04-20 22:31 -23.44173 -46.22095 9836 ft 294 kts 102°
2026-04-20 22:31 -23.44541 -46.19896 10397 ft 298 kts 102°
2026-04-20 22:31 -23.44890 -46.17861 10551 ft 315 kts 102°
2026-04-20 22:31 -23.45308 -46.15480 10714 ft 332 kts 102°
2026-04-20 22:32 -23.45751 -46.12956 10993 ft 343 kts 102°
2026-04-20 22:32 -23.46196 -46.10394 11481 ft 346 kts 103°
2026-04-20 22:32 -23.46645 -46.07814 12092 ft 347 kts 103°
2026-04-20 22:32 -23.47094 -46.05231 12645 ft 350 kts 103°
2026-04-20 22:33 -23.47549 -46.02611 13012 ft 352 kts 103°
2026-04-20 22:33 -23.48007 -45.99979 13119 ft 352 kts 103°
2026-04-20 22:33 -23.48464 -45.97360 13126 ft 352 kts 103°
2026-04-20 22:33 -23.48836 -45.94716 13155 ft 357 kts 96°
2026-04-20 22:34 -23.48763 -45.91995 13700 ft 361 kts 86°
2026-04-20 22:34 -23.48245 -45.89306 14230 ft 366 kts 77°
2026-04-20 22:34 -23.47567 -45.86621 14657 ft 369 kts 77°
2026-04-20 22:34 -23.46893 -45.83908 15090 ft 373 kts 78°
2026-04-20 22:35 -23.46438 -45.82059 15403 ft 374 kts 78°
2026-04-20 22:35 -23.45549 -45.78415 16002 ft 378 kts 78°
2026-04-20 22:35 -23.44873 -45.75636 16433 ft 382 kts 78°
2026-04-20 22:35 -23.44410 -45.73738 16728 ft 384 kts 78°
2026-04-20 22:36 -23.43729 -45.70950 17182 ft 387 kts 78°
2026-04-20 22:36 -23.43034 -45.68111 17613 ft 390 kts 78°
2026-04-20 22:36 -23.42330 -45.65238 18071 ft 393 kts 77°
2026-04-20 22:36 -23.41620 -45.62350 18494 ft 396 kts 77°
2026-04-20 22:37 -23.40904 -45.59441 18873 ft 399 kts 77°
2026-04-20 22:37 -23.40182 -45.56512 19283 ft 402 kts 77°
2026-04-20 22:37 -23.39456 -45.53568 19668 ft 405 kts 77°
2026-04-20 22:37 -23.38722 -45.50591 20073 ft 407 kts 78°
2026-04-20 22:38 -23.38052 -45.47625 20468 ft 410 kts 79°
2026-04-20 22:38 -23.37411 -45.44550 20881 ft 412 kts 80°
2026-04-20 22:38 -23.36791 -45.41536 21289 ft 416 kts 80°
2026-04-20 22:38 -23.36150 -45.38453 21719 ft 419 kts 80°
2026-04-20 22:39 -23.35498 -45.35354 22144 ft 422 kts 80°
2026-04-20 22:39 -23.34836 -45.32237 22566 ft 424 kts 79°
2026-04-20 22:39 -23.34167 -45.29111 23114 ft 425 kts 79°
2026-04-20 22:39 -23.33493 -45.25976 23475 ft 429 kts 79°
2026-04-20 22:40 -23.32810 -45.22788 23735 ft 434 kts 79°
2026-04-20 22:40 -23.32122 -45.19583 24001 ft 435 kts 79°
2026-04-20 22:40 -23.31431 -45.16366 24277 ft 438 kts 79°
2026-04-20 22:40 -23.30733 -45.13130 24540 ft 440 kts 79°
2026-04-20 22:41 -23.30034 -45.09878 24812 ft 442 kts 79°
2026-04-20 22:41 -23.29332 -45.06619 25092 ft 444 kts 79°
2026-04-20 22:41 -23.28646 -45.03443 25351 ft 447 kts 79°
2026-04-20 22:41 -23.27933 -45.00142 25618 ft 449 kts 79°
2026-04-20 22:42 -23.27216 -44.96826 25912 ft 451 kts 79°
2026-04-20 22:42 -23.26496 -44.93496 26193 ft 453 kts 79°
2026-04-20 22:42 -23.25781 -44.90196 26480 ft 456 kts 79°
2026-04-20 22:42 -23.25049 -44.86828 26770 ft 458 kts 79°
2026-04-20 22:43 -23.24315 -44.83453 27064 ft 461 kts 79°
2026-04-20 22:43 -23.23575 -44.80053 27354 ft 462 kts 79°
2026-04-20 22:43 -23.22834 -44.76651 27645 ft 465 kts 79°
2026-04-20 22:43 -23.22085 -44.73217 27960 ft 468 kts 78°
2026-04-20 22:44 -23.21332 -44.69762 28265 ft 471 kts 78°
2026-04-20 22:44 -23.20572 -44.66287 28574 ft 474 kts 78°
2026-04-20 22:44 -23.19742 -44.62808 28886 ft 477 kts 74°
2026-04-20 22:44 -23.18560 -44.59428 29219 ft 481 kts 67°
2026-04-20 22:45 -23.17208 -44.56096 29523 ft 484 kts 67°
2026-04-20 22:45 -23.15858 -44.52731 29833 ft 487 kts 68°
2026-04-20 22:45 -23.14511 -44.49350 30170 ft 489 kts 68°
2026-04-20 22:45 -23.13157 -44.45949 30455 ft 492 kts 68°
2026-04-20 22:46 -23.11797 -44.42531 30737 ft 494 kts 68°
2026-04-20 22:46 -23.10429 -44.39101 31013 ft 496 kts 68°
2026-04-20 22:46 -23.09054 -44.35655 31316 ft 498 kts 68°
2026-04-20 22:46 -23.07689 -44.32237 31589 ft 500 kts 68°
2026-04-20 22:47 -23.06312 -44.28794 31872 ft 502 kts 68°
2026-04-20 22:47 -23.04918 -44.25310 32170 ft 505 kts 68°
2026-04-20 22:47 -23.03515 -44.21806 32474 ft 507 kts 68°
2026-04-20 22:47 -23.02106 -44.18291 32779 ft 508 kts 68°
2026-04-20 22:48 -23.00695 -44.14771 33078 ft 509 kts 68°
2026-04-20 22:48 -22.99280 -44.11248 33386 ft 509 kts 68°
2026-04-20 22:48 -22.97870 -44.07734 33694 ft 509 kts 68°
2026-04-20 22:48 -22.96455 -44.04214 33984 ft 508 kts 68°
2026-04-20 22:49 -22.95042 -44.00701 34285 ft 508 kts 68°
2026-04-20 22:49 -22.93628 -43.97191 34555 ft 507 kts 68°
2026-04-20 22:49 -22.92217 -43.93687 34832 ft 507 kts 68°
2026-04-20 22:49 -22.90803 -43.90179 35110 ft 506 kts 68°
2026-04-20 22:50 -22.89389 -43.86673 35399 ft 506 kts 68°
2026-04-20 22:50 -22.87978 -43.83181 35668 ft 505 kts 68°
2026-04-20 22:50 -22.86572 -43.79701 35954 ft 504 kts 68°
2026-04-20 22:50 -22.85182 -43.76264 36252 ft 503 kts 68°
2026-04-20 22:51 -22.83778 -43.72795 36545 ft 502 kts 68°
2026-04-20 22:51 -22.82377 -43.69334 36851 ft 500 kts 68°
2026-04-20 22:51 -22.80977 -43.65878 37052 ft 502 kts 68°
2026-04-20 22:51 -22.79728 -43.62798 37081 ft 506 kts 68°
2026-04-20 22:52 -22.76907 -43.55847 37087 ft 507 kts 68°
2026-04-20 22:52 -22.74064 -43.48855 37086 ft 507 kts 68°
2026-04-20 22:53 -22.71220 -43.41871 37082 ft 507 kts 68°
2026-04-20 22:53 -22.68369 -43.34882 37065 ft 507 kts 68°
2026-04-20 22:54 -22.65516 -43.27895 37064 ft 507 kts 68°
2026-04-20 22:54 -22.62677 -43.20954 37069 ft 508 kts 68°
2026-04-20 22:55 -22.59815 -43.13968 37083 ft 508 kts 68°
2026-04-20 22:55 -22.56946 -43.06974 37093 ft 507 kts 67°
2026-04-20 22:56 -22.54082 -42.99999 37110 ft 508 kts 67°
2026-04-20 22:56 -22.51214 -42.93025 37111 ft 507 kts 67°
2026-04-20 22:57 -22.48340 -42.86054 37119 ft 507 kts 67°
2026-04-20 22:57 -22.45465 -42.79085 37117 ft 507 kts 67°
2026-04-20 22:58 -22.42583 -42.72112 37119 ft 507 kts 67°
2026-04-20 22:58 -22.39701 -42.65144 37121 ft 508 kts 66°
2026-04-20 22:59 -22.36829 -42.58216 37121 ft 508 kts 66°
2026-04-20 22:59 -22.33936 -42.51245 37118 ft 507 kts 66°
2026-04-20 23:00 -22.31043 -42.44291 37112 ft 507 kts 65°
2026-04-20 23:00 -22.27507 -42.37709 37109 ft 507 kts 54°
2026-04-20 23:01 -22.23232 -42.31661 37101 ft 507 kts 52°
2026-04-20 23:01 -22.18959 -42.25593 37101 ft 507 kts 52°
2026-04-20 23:02 -22.14696 -42.19537 37099 ft 507 kts 52°
2026-04-20 23:02 -22.10448 -42.13522 37092 ft 507 kts 52°
2026-04-20 23:03 -22.06243 -42.07561 37091 ft 507 kts 52°
2026-04-20 23:03 -22.01962 -42.01507 37085 ft 507 kts 52°
2026-04-20 23:04 -21.97688 -41.95469 37084 ft 506 kts 52°
2026-04-20 23:04 -21.93414 -41.89439 37071 ft 506 kts 52°
2026-04-20 23:05 -21.89167 -41.83454 37069 ft 505 kts 52°
2026-04-20 23:05 -21.84900 -41.77447 37068 ft 505 kts 52°
2026-04-20 23:06 -21.80621 -41.71427 37064 ft 506 kts 52°
2026-04-20 23:06 -21.76347 -41.65425 37059 ft 506 kts 52°
2026-04-20 23:07 -21.72062 -41.59410 37057 ft 506 kts 52°
2026-04-20 23:07 -21.67769 -41.53391 37052 ft 507 kts 52°
2026-04-20 23:08 -21.63499 -41.47412 37049 ft 507 kts 52°
2026-04-20 23:08 -21.59202 -41.41403 37051 ft 507 kts 52°
2026-04-20 23:09 -21.54901 -41.35392 37037 ft 507 kts 52°
2026-04-20 23:09 -21.52759 -41.32402 36772 ft 504 kts 52°
2026-04-20 23:09 -21.50592 -41.29439 36182 ft 503 kts 49°
2026-04-20 23:10 -21.48179 -41.26711 35468 ft 505 kts 42°
2026-04-20 23:10 -21.45502 -41.24274 34691 ft 505 kts 38°
2026-04-20 23:10 -21.42762 -41.21888 33827 ft 508 kts 38°
2026-04-20 23:10 -21.40019 -41.19482 32939 ft 510 kts 38°
2026-04-20 23:11 -21.37274 -41.17061 32037 ft 510 kts 38°
2026-04-20 23:11 -21.34530 -41.14639 31159 ft 511 kts 38°
2026-04-20 23:11 -21.31791 -41.12222 30528 ft 507 kts 38°
2026-04-20 23:11 -21.29081 -41.09831 29963 ft 502 kts 38°
2026-04-20 23:12 -21.26390 -41.07463 29348 ft 497 kts 38°
2026-04-20 23:12 -21.23730 -41.05126 28750 ft 491 kts 38°
2026-04-20 23:12 -21.21132 -41.02844 28172 ft 486 kts 38°
2026-04-20 23:12 -21.18534 -41.00562 27579 ft 481 kts 38°
2026-04-20 23:13 -21.15924 -40.98270 27005 ft 476 kts 38°
2026-04-20 23:13 -21.13407 -40.96061 26446 ft 471 kts 38°
2026-04-20 23:13 -21.10884 -40.93848 25877 ft 466 kts 38°
2026-04-20 23:13 -21.08383 -40.91655 25331 ft 462 kts 38°
2026-04-20 23:14 -21.05914 -40.89490 24787 ft 457 kts 38°
2026-04-20 23:14 -21.03461 -40.87340 24249 ft 453 kts 38°
2026-04-20 23:14 -21.01040 -40.85219 23702 ft 448 kts 38°
2026-04-20 23:14 -20.98632 -40.83111 23105 ft 444 kts 38°
2026-04-20 23:15 -20.96254 -40.81028 22447 ft 439 kts 38°
2026-04-20 23:15 -20.93895 -40.78963 21805 ft 435 kts 38°
2026-04-20 23:15 -20.91562 -40.76923 21174 ft 431 kts 39°
2026-04-20 23:15 -20.89253 -40.74904 20538 ft 427 kts 39°
2026-04-20 23:16 -20.86965 -40.72904 19923 ft 423 kts 39°
2026-04-20 23:16 -20.84695 -40.70920 19313 ft 419 kts 39°
2026-04-20 23:16 -20.82435 -40.68970 18685 ft 415 kts 36°
2026-04-20 23:16 -20.80030 -40.67292 18036 ft 410 kts 28°
2026-04-20 23:17 -20.77466 -40.65989 17349 ft 405 kts 20°
2026-04-20 23:17 -20.74899 -40.64890 16673 ft 401 kts 20°
2026-04-20 23:17 -20.72324 -40.63772 16005 ft 397 kts 21°
2026-04-20 23:17 -20.69786 -40.62658 15362 ft 393 kts 21°
2026-04-20 23:18 -20.67269 -40.61549 14720 ft 389 kts 21°
2026-04-20 23:18 -20.64782 -40.60452 14085 ft 386 kts 21°
2026-04-20 23:18 -20.62314 -40.59367 13420 ft 381 kts 21°
2026-04-20 23:18 -20.59875 -40.58293 12724 ft 377 kts 21°
2026-04-20 23:19 -20.57470 -40.57234 12270 ft 370 kts 21°
2026-04-20 23:19 -20.55074 -40.56182 12115 ft 375 kts 21°
2026-04-20 23:19 -20.52668 -40.55126 12094 ft 374 kts 21°
2026-04-20 23:19 -20.50293 -40.54083 12085 ft 359 kts 21°
2026-04-20 23:20 -20.48195 -40.53158 12082 ft 338 kts 21°
2026-04-20 23:20 -20.46097 -40.52234 12078 ft 316 kts 21°
2026-04-20 23:20 -20.44110 -40.51361 12075 ft 315 kts 20°
2026-04-20 23:20 -20.42078 -40.50471 12075 ft 315 kts 20°
2026-04-20 23:21 -20.40076 -40.49594 12018 ft 305 kts 20°
2026-04-20 23:21 -20.38148 -40.48747 11724 ft 297 kts 20°
2026-04-20 23:21 -20.36246 -40.47911 11251 ft 295 kts 20°
2026-04-20 23:21 -20.34319 -40.47221 10766 ft 290 kts 11°
2026-04-20 23:22 -20.32353 -40.46746 10263 ft 289 kts 10°
2026-04-20 23:22 -20.30395 -40.46274 9814 ft 287 kts 11°
2026-04-20 23:22 -20.29083 -40.45954 9437 ft 286 kts 11°
2026-04-20 23:22 -20.27191 -40.45487 9152 ft 280 kts 11°
2026-04-20 23:23 -20.25269 -40.45010 9062 ft 286 kts 11°
2026-04-20 23:23 -20.23341 -40.44529 9032 ft 283 kts 11°
2026-04-20 23:23 -20.21425 -40.44049 8818 ft 282 kts 11°
2026-04-20 23:23 -20.19526 -40.43575 8399 ft 280 kts 12°
2026-04-20 23:24 -20.17636 -40.43104 7911 ft 278 kts 12°
2026-04-20 23:24 -20.15755 -40.42636 7381 ft 277 kts 12°
2026-04-20 23:24 -20.13888 -40.42171 6897 ft 274 kts 12°
2026-04-20 23:24 -20.12042 -40.41712 6407 ft 271 kts 12°
2026-04-20 23:25 -20.10277 -40.41080 6139 ft 269 kts 30°
2026-04-20 23:25 -20.08892 -40.39742 6069 ft 271 kts 56°
2026-04-20 23:25 -20.07956 -40.37313 6019 ft 267 kts 77°
2026-04-20 23:25 -20.07677 -40.36018 5834 ft 266 kts 79°
2026-04-20 23:26 -20.07286 -40.34103 5455 ft 263 kts 79°
2026-04-20 23:26 -20.06849 -40.32222 4973 ft 260 kts 77°
2026-04-20 23:26 -20.06353 -40.30375 4483 ft 259 kts 75°
2026-04-20 23:26 -20.05827 -40.28576 3977 ft 257 kts 75°
2026-04-20 23:27 -20.05281 -40.26782 3715 ft 253 kts 75°
2026-04-20 23:27 -20.04752 -40.25066 3629 ft 235 kts 75°
2026-04-20 23:27 -20.04280 -40.23467 3511 ft 219 kts 81°
2026-04-20 23:27 -20.04174 -40.21921 3414 ft 201 kts 99°
2026-04-20 23:28 -20.04471 -40.20546 3340 ft 183 kts 115°
2026-04-20 23:28 -20.05045 -40.19382 3144 ft 174 kts 129°
2026-04-20 23:28 -20.05831 -40.18431 2869 ft 170 kts 142°
2026-04-20 23:28 -20.06782 -40.17710 2604 ft 166 kts 154°
2026-04-20 23:29 -20.07836 -40.17242 2306 ft 165 kts 166°
2026-04-20 23:29 -20.08955 -40.17030 2071 ft 161 kts 178°
2026-04-20 23:29 -20.10084 -40.17087 2024 ft 166 kts 189°
2026-04-20 23:29 -20.11193 -40.17409 2020 ft 162 kts 200°
2026-04-20 23:30 -20.12182 -40.17973 2020 ft 164 kts 212°
2026-04-20 23:30 -20.13044 -40.18766 1978 ft 162 kts 224°
2026-04-20 23:30 -20.13728 -40.19742 1697 ft 173 kts 236°
2026-04-20 23:30 -20.14289 -40.20888 1709 ft 170 kts 239°
2026-04-20 23:31 -20.14813 -40.21923 1609 ft 146 kts 238°
2026-04-20 23:31 -20.15297 -40.22851 1626 ft 148 kts 237°
2026-04-20 23:31 -20.15783 -40.23764 1604 ft 141 kts 236°
2026-04-20 23:31 -20.16285 -40.24702 1604 ft 148 kts 236°
2026-04-20 23:32 -20.16796 -40.25636 1611 ft 144 kts 237°
2026-04-20 23:32 -20.17299 -40.26554 1493 ft 144 kts 236°
2026-04-20 23:32 -20.17897 -40.27409 1311 ft 146 kts 225°
2026-04-20 23:32 -20.18687 -40.28089 1131 ft 146 kts 212°
2026-04-20 23:33 -20.19593 -40.28534 961 ft 146 kts 198°
2026-04-20 23:33 -20.20599 -40.28736 801 ft 146 kts 185°
2026-04-20 23:33 -20.21600 -40.28674 617 ft 145 kts 171°
2026-04-20 23:33 -20.22599 -40.28477 444 ft 145 kts 170°
2026-04-20 23:34 -20.23590 -40.28295 286 ft 146 kts 173°
2026-04-20 23:34 -20.24577 -40.28134 88 ft 142 kts 174°
2026-04-20 23:34 -20.25496 -40.28006 30 ft 103 kts 173°
2026-04-20 23:34 -20.25904 -40.27957 26 ft 22 kts 210°
2026-04-20 23:35 -20.25934 -40.28058 29 ft 11 kts 258°
2026-04-20 23:35 -20.25937 -40.28081 26 ft 4 kts 263°
2026-04-20 23:35 -20.25938 -40.28116 24 ft 6 kts 267°
2026-04-20 23:36 -20.25935 -40.28168 24 ft 8 kts 276°
2026-04-20 23:36 -20.25923 -40.28232 25 ft 10 kts 284°
2026-04-20 23:36 -20.25906 -40.28305 24 ft 12 kts 283°
2026-04-20 23:36 -20.25883 -40.28405 23 ft 16 kts 284°
2026-04-20 23:37 -20.25850 -40.28527 22 ft 19 kts 293°
2026-04-20 23:37 -20.25775 -40.28658 19 ft 23 kts 304°
2026-04-20 23:37 -20.25710 -40.28770 21 ft 14 kts 282°
2026-04-20 23:37 -20.25760 -40.28843 21 ft 11 kts 217°
2026-04-20 23:38 -20.25818 -40.28881 23 ft 8 kts 210°
2026-04-20 23:38 -20.25851 -40.28902 21 ft 0 kts 212°
2026-04-20 23:38 -20.25852 -40.28902 25 ft 1 kts 212°
2026-04-20 23:38 -20.25879 -40.28920 21 ft 9 kts 212°
2026-04-20 23:39 -20.25950 -40.28968 23 ft 14 kts 212°
2026-04-20 23:39 -20.25987 -40.28995 24 ft 0 kts 222°
2026-04-20 23:39 -20.25984 -40.29016 23 ft 4 kts 279°
2026-04-20 23:39 -20.25978 -40.29026 23 ft 0 kts 295°